ISS (ZARYA) 1 25544U 98067A 26174.70411780 .00007707 00000+0 14592-3 0 9992 2 25544 51.6324 267.8348 0004448 222.5563 137.5081 15.49389560572768 POISK 1 36086U 09060A 26174.70411780 .00007707 00000+0 14592-3 0 9990 2 36086 51.6324 267.8348 0004448 222.5563 137.5081 15.49389560571636 CSS (TIANHE) 1 48274U 21035A 26174.75898164 .00019848 00000+0 23212-3 0 9996 2 48274 41.4689 281.9999 0007596 134.6031 225.5429 15.61069722294194 ISS (NAUKA) 1 49044U 21066A 26174.70411780 .00007707 00000+0 14592-3 0 9998 2 49044 51.6324 267.8348 0004448 222.5563 137.5081 15.49389560571689 FREGAT DEB 1 49271U 11037PF 26174.72777939 .00007325 00000+0 12644-1 0 9990 2 49271 51.6248 342.2478 0899580 296.6074 54.5366 12.42164012225869 CSS (WENTIAN) 1 53239U 22085A 26174.75898164 .00019848 00000+0 23212-3 0 9999 2 53239 41.4689 281.9999 0007596 134.6031 225.5429 15.61069722288239 CSS (MENGTIAN) 1 54216U 22143A 26174.75898164 .00019848 00000+0 23212-3 0 9990 2 54216 41.4689 281.9999 0007596 134.6031 225.5429 15.61069722293916 HRC MONOBLOCK CAMERA 1 66052U 98067XR 26174.48524223 .00066212 00000+0 43938-3 0 9995 2 66052 51.6226 246.8012 0002364 332.3640 27.7233 15.74846680 38994 SZ-21 MODULE 1 66515U 25246C 26174.61333356 .00037843 00000+0 22797-3 0 9996 2 66515 41.4723 267.2876 0005343 38.8723 321.2505 15.76903759 34759 SOYUZ-MS 28 1 66664U 25275A 26174.70411780 .00007707 00000+0 14592-3 0 9991 2 66664 51.6324 267.8348 0004448 222.5563 137.5081 15.49389560571787 DUPLEX 1 66906U 98067XS 26174.51078184 .00032418 00000+0 35432-3 0 9998 2 66906 51.6254 257.5278 0002856 242.9616 117.1087 15.63015548 31646 ISS OBJECT XY 1 66912U 98067XY 26174.89860423 .00852482 39399-3 10726-2 0 9997 2 66912 51.6127 238.1367 0012147 349.7852 10.2912 16.06829579 31924 KNACKSAT-2 1 67683U 98067XZ 26174.62737886 .00038628 00000+0 46309-3 0 9998 2 67683 51.6285 262.0701 0008762 244.0918 115.9173 15.60494137 21288 CORAL 1 67684U 98067YA 26174.59397837 .00182234 00000+0 98752-3 0 9995 2 67684 51.6197 255.0367 0009146 294.7427 65.2621 15.78926396 21376 GXIBA-1 1 67685U 98067YB 26174.94265321 .00051395 00000+0 57298-3 0 9990 2 67685 51.6262 259.6686 0009642 243.6679 116.3326 15.62241104 21344 UITMSAT-2 1 67686U 98067YC 26174.68446372 .00062861 00000+0 60991-3 0 9993 2 67686 51.6255 259.4417 0004955 243.0909 116.9581 15.65725229 21324 LEOPARD 1 67687U 98067YD 26174.52326650 .00043236 00000+0 49719-3 0 9993 2 67687 51.6290 262.1343 0005611 226.3790 133.6739 15.61552623 21193 HMU-SAT2 1 67688U 98067YE 26174.61685689 .00052570 00000+0 54681-3 0 9999 2 67688 51.6274 260.5015 0005145 234.9680 125.0832 15.64044963 21228 CREW DRAGON 12 1 67796U 26031A 26174.70411780 .00007707 00000+0 14592-3 0 9999 2 67796 51.6324 267.8348 0004448 222.5563 137.5081 15.49389560625111 PROGRESS-MS 33 1 68319U 26058A 26174.70411780 .00007707 00000+0 14592-3 0 9990 2 68319 51.6324 267.8348 0004448 222.5563 137.5081 15.49389560571832 CYGNUS NG-24 1 68689U 26079A 26174.70411780 .00007707 00000+0 14592-3 0 9993 2 68689 51.6324 267.8348 0004448 222.5563 137.5081 15.49389560678302 PROGRESS-MS 34 1 68837U 26093A 26174.70411780 .00007707 00000+0 14592-3 0 9994 2 68837 51.6324 267.8348 0004448 222.5563 137.5081 15.49389560696037 TIANZHOU-10 1 69049U 26102A 26174.75898164 .00019848 00000+0 23212-3 0 9999 2 69049 41.4689 281.9999 0007596 134.6031 225.5429 15.61069722 6895 SHENZHOU-23 (SZ-23) 1 69180U 26113A 26174.75898164 .00019848 00000+0 23212-3 0 9997 2 69180 41.4689 281.9999 0007596 134.6031 225.5429 15.61069722293642